| time (UTC) | temp C | wind direction | speed KPH | gust KPH | rain 1hr cm | rain 24hr cm | rain mn cm | humidity % | barometer mb |
| 20260905120826 | 22 | 197 | 3.2 | 3.2 | 0.00 | 0.41 | 0.00 | 89 | 1016.0 |
| 20260905120515 | 22 | 197 | 0.0 | 1.6 | 0.00 | 0.41 | 0.00 | 88 | 1013.4 |
| 20260905120323 | 22 | 197 | 0.0 | 1.6 | 0.00 | 0.41 | 0.00 | 88 | 1016.1 |
| 20260905120046 | 22 | 197 | 0.0 | 1.6 | 0.00 | 0.41 | 0.00 | 89 | 1013.4 |
| 20260905115821 | 22 | 197 | 0.0 | 3.2 | 0.00 | 0.43 | 0.00 | 89 | 1016.0 |
| 20260905115540 | 22 | 197 | 0.0 | 3.2 | 0.00 | 0.43 | 0.00 | 89 | 1013.2 |
| 20260905115339 | 23 | 197 | 1.6 | 3.2 | 0.00 | 0.43 | 0.00 | 89 | 1016.0 |
| 20260905115002 | 22 | 197 | 0.0 | 3.2 | 0.00 | 0.43 | 0.00 | 89 | 1013.2 |
| 20260905114816 | 23 | 197 | 1.6 | 3.2 | 0.00 | 0.43 | 0.00 | 89 | 1015.9 |
| 20260905114601 | 22 | 197 | 0.0 | 0.0 | 0.00 | 0.43 | 0.00 | 89 | 1013.3 |
| 20260905114314 | 23 | 197 | 0.0 | 0.0 | 0.00 | 0.43 | 0.00 | 88 | 1016.0 |
| 20260905114048 | 22 | 197 | 0.0 | 0.0 | 0.00 | 0.43 | 0.00 | 88 | 1013.3 |
| 20260905113852 | 23 | 197 | 0.0 | 0.0 | 0.00 | 0.43 | 0.00 | 88 | 1016.0 |
| 20260905113510 | 22 | 197 | 0.0 | 0.0 | 0.00 | 0.43 | 0.00 | 88 | 1013.3 |
| 20260905113329 | 23 | 197 | 0.0 | 0.0 | 0.00 | 0.43 | 0.00 | 88 | 1016.0 |
| 20260905113103 | 22 | 197 | 0.0 | 0.0 | 0.00 | 0.43 | 0.00 | 88 | 1013.2 |
| 20260905112827 | 23 | 197 | 0.0 | 0.0 | 0.00 | 0.43 | 0.00 | 88 | 1015.9 |
| 20260905112552 | 22 | 197 | 0.0 | 0.0 | 0.00 | 0.43 | 0.00 | 88 | 1013.2 |
| 20260905112324 | 23 | 197 | 0.0 | 0.0 | 0.00 | 0.43 | 0.00 | 87 | 1015.9 |
| 20260905112024 | 22 | 197 | 0.0 | 0.0 | 0.00 | 0.43 | 0.00 | 87 | 1013.2 |
| 20260905111822 | 23 | 197 | 0.0 | 0.0 | 0.00 | 0.43 | 0.00 | 87 | 1015.8 |
| 20260905111507 | 22 | 197 | 0.0 | 0.0 | 0.00 | 0.43 | 0.00 | 87 | 1013.1 |
| 20260905111320 | 23 | 197 | 0.0 | 0.0 | 0.00 | 0.43 | 0.00 | 87 | 1015.8 |
| 20260905111100 | 23 | 197 | 0.0 | 0.0 | 0.00 | 0.43 | 0.00 | 87 | 1012.9 |
| 20260905110839 | 23 | 197 | 0.0 | 0.0 | 0.00 | 0.43 | 0.00 | 87 | 1015.7 |
| 20260905110548 | 23 | 197 | 0.0 | 1.6 | 0.00 | 0.43 | 0.00 | 87 | 1013.0 |
| 20260905110330 | 23 | 197 | 0.0 | 1.6 | 0.00 | 0.43 | 0.00 | 87 | 1015.7 |
| 20260905110040 | 23 | 197 | 0.0 | 1.6 | 0.00 | 0.43 | 0.00 | 87 | 1012.9 |
| 20260905105829 | 23 | 197 | 0.0 | 3.2 | 0.00 | 0.43 | 0.00 | 87 | 1015.7 |
| 20260905105530 | 23 | 197 | 0.0 | 3.2 | 0.00 | 0.43 | 0.00 | 86 | 1012.9 |
| 20260905105326 | 23 | 197 | 1.6 | 3.2 | 0.00 | 0.43 | 0.00 | 86 | 1015.8 |
| 20260905105058 | 23 | 197 | 1.6 | 3.2 | 0.00 | 0.43 | 0.00 | 86 | 1013.1 |
| 20260905104824 | 23 | 197 | 0.0 | 1.6 | 0.00 | 0.43 | 0.00 | 87 | 1015.8 |
| 20260905104547 | 23 | 197 | 0.0 | 1.6 | 0.00 | 0.43 | 0.00 | 87 | 1013.1 |
| 20260905104321 | 23 | 197 | 0.0 | 3.2 | 0.00 | 0.43 | 0.00 | 87 | 1015.8 |
| 20260905104022 | 23 | 197 | 0.0 | 3.2 | 0.00 | 0.43 | 0.00 | 87 | 1013.1 |
| 20260905103819 | 23 | 197 | 0.0 | 3.2 | 0.00 | 0.43 | 0.00 | 87 | 1015.8 |
| 20260905103600 | 23 | 197 | 1.6 | 3.2 | 0.00 | 0.43 | 0.00 | 87 | 1013.0 |
| 20260905103337 | 23 | 197 | 1.6 | 3.2 | 0.00 | 0.43 | 0.00 | 87 | 1015.7 |
| 20260905103032 | 23 | 197 | 0.0 | 1.6 | 0.00 | 0.43 | 0.00 | 87 | 1013.0 |
| 20260905102814 | 24 | 197 | 0.0 | 0.0 | 0.00 | 0.43 | 0.00 | 87 | 1015.7 |
| 20260905102514 | 23 | 197 | 0.0 | 0.0 | 0.00 | 0.43 | 0.00 | 87 | 1013.1 |
| 20260905102332 | 24 | 197 | 0.0 | 0.0 | 0.00 | 0.43 | 0.00 | 87 | 1015.8 |
| 20260905102006 | 23 | 197 | 0.0 | 1.6 | 0.00 | 0.43 | 0.00 | 87 | 1013.0 |
| 20260905101830 | 24 | 197 | 0.0 | 1.6 | 0.00 | 0.43 | 0.00 | 86 | 1015.8 |
| 20260905101607 | 23 | 197 | 0.0 | 1.6 | 0.00 | 0.43 | 0.00 | 86 | 1013.0 |
| 20260905101329 | 24 | 197 | 0.0 | 1.6 | 0.00 | 0.43 | 0.00 | 86 | 1015.8 |
| 20260905101052 | 23 | 197 | 0.0 | 0.0 | 0.00 | 0.43 | 0.00 | 86 | 1013.0 |
| 20260905100826 | 24 | 197 | 0.0 | 0.0 | 0.00 | 0.43 | 0.00 | 86 | 1015.8 |
| 20260905100544 | 23 | 197 | 0.0 | 0.0 | 0.00 | 0.43 | 0.00 | 86 | 1012.9 |
| 20260905100324 | 24 | 197 | 0.0 | 0.0 | 0.00 | 0.43 | 0.00 | 86 | 1015.7 |
| 20260905100108 | 24 | 197 | 0.0 | 1.6 | 0.00 | 0.43 | 0.00 | 86 | 1012.9 |
| 20260905095822 | 24 | 197 | 0.0 | 4.8 | 0.00 | 0.43 | 0.00 | 86 | 1015.7 |
| 20260905095528 | 24 | 197 | 0.0 | 4.8 | 0.00 | 0.43 | 0.00 | 86 | 1012.9 |
| 20260905095320 | 24 | 197 | 0.0 | 4.8 | 0.00 | 0.43 | 0.00 | 86 | 1015.6 |
| 20260905095020 | 24 | 197 | 1.6 | 4.8 | 0.00 | 0.43 | 0.00 | 86 | 1012.9 |
| 20260905094818 | 24 | 197 | 0.0 | 6.4 | 0.00 | 0.43 | 0.00 | 86 | 1015.7 |
| 20260905094519 | 24 | 197 | 0.0 | 11.3 | 0.00 | 0.43 | 0.00 | 86 | 1012.9 |
| 20260905094316 | 24 | 197 | 1.6 | 11.3 | 0.00 | 0.43 | 0.00 | 86 | 1015.7 |
| 20260905094058 | 24 | 197 | 4.8 | 11.3 | 0.00 | 0.43 | 0.00 | 86 | 1013.0 |
| 20260905093829 | 24 | 197 | 1.6 | 6.4 | 0.00 | 0.43 | 0.00 | 86 | 1015.8 |
| 20260905093528 | 24 | 197 | 3.2 | 6.4 | 0.00 | 0.43 | 0.00 | 86 | 1012.9 |
| 20260905093326 | 24 | 197 | 3.2 | 6.4 | 0.00 | 0.43 | 0.00 | 86 | 1015.6 |
| 20260905093013 | 24 | 197 | 3.2 | 8.0 | 0.00 | 0.43 | 0.00 | 86 | 1012.8 |
| 20260905092824 | 24 | 197 | 3.2 | 9.7 | 0.00 | 0.43 | 0.00 | 86 | 1015.5 |
| 20260905092506 | 24 | 197 | 4.8 | 9.7 | 0.00 | 0.43 | 0.00 | 86 | 1012.8 |
| 20260905092321 | 24 | 197 | 4.8 | 9.7 | 0.00 | 0.43 | 0.00 | 86 | 1015.6 |
| 20260905092056 | 24 | 195 | 6.4 | 9.7 | 0.00 | 0.43 | 0.00 | 86 | 1012.9 |
| 20260905091839 | 24 | 201 | 6.4 | 12.9 | 0.00 | 0.43 | 0.00 | 86 | 1015.5 |
| 20260905091555 | 24 | 236 | 4.8 | 12.9 | 0.00 | 0.43 | 0.00 | 86 | 1012.9 |
| 20260905091331 | 24 | 191 | 6.4 | 12.9 | 0.00 | 0.43 | 0.00 | 86 | 1015.6 |
| 20260905091041 | 24 | 218 | 6.4 | 12.9 | 0.00 | 0.43 | 0.00 | 86 | 1012.9 |
| 20260905090850 | 24 | 210 | 6.4 | 9.7 | 0.00 | 0.43 | 0.00 | 86 | 1015.7 |
| 20260905090512 | 24 | 224 | 4.8 | 9.7 | 0.00 | 0.43 | 0.00 | 86 | 1013.0 |
| 20260905090327 | 24 | 199 | 4.8 | 9.7 | 0.00 | 0.43 | 0.00 | 86 | 1015.6 |
| 20260905090012 | 24 | 199 | 4.8 | 9.7 | 0.00 | 0.43 | 0.00 | 86 | 1013.0 |
| 20260905085826 | 24 | 199 | 6.4 | 9.7 | 0.00 | 0.43 | 0.00 | 86 | 1015.7 |
| 20260905085504 | 24 | 194 | 4.8 | 9.7 | 0.00 | 0.43 | 0.00 | 86 | 1012.9 |
| 20260905085324 | 24 | 195 | 6.4 | 9.7 | 0.00 | 0.43 | 0.00 | 85 | 1015.7 |
| 20260905085058 | 24 | 203 | 3.2 | 6.4 | 0.00 | 0.43 | 0.00 | 85 | 1012.9 |
| 20260905084843 | 24 | 187 | 3.2 | 6.4 | 0.00 | 0.43 | 0.00 | 85 | 1015.6 |
| 20260905084528 | 24 | 187 | 1.6 | 6.4 | 0.00 | 0.43 | 0.00 | 85 | 1012.9 |
| 20260905084340 | 24 | 187 | 3.2 | 6.4 | 0.00 | 0.43 | 0.00 | 85 | 1015.5 |
| 20260905084016 | 24 | 187 | 3.2 | 8.0 | 0.00 | 0.43 | 0.00 | 85 | 1012.9 |
| 20260905083830 | 24 | 187 | 3.2 | 8.0 | 0.00 | 0.43 | 0.00 | 85 | 1015.6 |
| 20260905083502 | 24 | 187 | 3.2 | 8.0 | 0.00 | 0.43 | 0.00 | 85 | 1012.9 |
| 20260905083327 | 24 | 210 | 3.2 | 8.0 | 0.00 | 0.43 | 0.00 | 85 | 1015.5 |
| 20260905083109 | 24 | 208 | 3.2 | 8.0 | 0.00 | 0.43 | 0.00 | 85 | 1012.8 |
| 20260905082844 | 24 | 205 | 4.8 | 8.0 | 0.00 | 0.43 | 0.00 | 85 | 1015.5 |
| 20260905082528 | 23 | 205 | 3.2 | 8.0 | 0.00 | 0.43 | 0.00 | 85 | 1012.7 |
| 20260905082320 | 24 | 205 | 3.2 | 8.0 | 0.00 | 0.43 | 0.00 | 85 | 1015.4 |
| 20260905082021 | 23 | 204 | 3.2 | 8.0 | 0.00 | 0.43 | 0.00 | 85 | 1012.7 |
| 20260905081818 | 24 | 205 | 4.8 | 8.0 | 0.00 | 0.43 | 0.00 | 85 | 1015.4 |
| 20260905081518 | 23 | 204 | 4.8 | 8.0 | 0.00 | 0.43 | 0.00 | 85 | 1012.8 |
| 20260905081335 | 23 | 205 | 4.8 | 8.0 | 0.00 | 0.43 | 0.00 | 85 | 1015.4 |
| 20260905081040 | 23 | 169 | 3.2 | 8.0 | 0.00 | 0.43 | 0.00 | 85 | 1012.7 |
| 20260905080851 | 23 | 169 | 6.4 | 8.0 | 0.00 | 0.43 | 0.00 | 85 | 1015.5 |
| 20260905080504 | 23 | 177 | 3.2 | 8.0 | 0.00 | 0.43 | 0.00 | 85 | 1012.9 |
| 20260905080327 | 23 | 176 | 4.8 | 8.0 | 0.00 | 0.43 | 0.00 | 85 | 1015.6 |
| 20260905080058 | 23 | 177 | 1.6 | 3.2 | 0.00 | 0.43 | 0.00 | 84 | 1013.0 |
| 20260905075844 | 23 | 177 | 1.6 | 3.2 | 0.00 | 0.43 | 0.00 | 84 | 1015.6 |
| 20260905075529 | 23 | 177 | 0.0 | 1.6 | 0.00 | 0.43 | 0.00 | 84 | 1013.0 |
| 20260905075341 | 23 | 177 | 0.0 | 1.6 | 0.00 | 0.43 | 0.00 | 83 | 1015.8 |
| 20260905075054 | 23 | 177 | 0.0 | 1.6 | 0.00 | 0.43 | 0.00 | 83 | 1013.0 |
| 20260905074837 | 23 | 177 | 0.0 | 1.6 | 0.00 | 0.43 | 0.00 | 83 | 1015.8 |
| 20260905074523 | 23 | 177 | 0.0 | 1.6 | 0.00 | 0.43 | 0.00 | 83 | 1013.0 |
| 20260905074329 | 23 | 177 | 0.0 | 0.0 | 0.00 | 0.43 | 0.00 | 83 | 1015.8 |
| 20260905074050 | 23 | 177 | 0.0 | 0.0 | 0.00 | 0.43 | 0.00 | 83 | 1013.1 |
| 20260905073846 | 23 | 177 | 0.0 | 0.0 | 0.00 | 0.43 | 0.00 | 83 | 1015.9 |
| 20260905073514 | 23 | 177 | 0.0 | 0.0 | 0.00 | 0.43 | 0.00 | 83 | 1013.2 |
| 20260905073343 | 23 | 177 | 0.0 | 0.0 | 0.00 | 0.43 | 0.00 | 83 | 1016.0 |
| 20260905073046 | 23 | 177 | 0.0 | 0.0 | 0.00 | 0.43 | 0.00 | 83 | 1013.3 |
| 20260905072820 | 23 | 177 | 0.0 | 0.0 | 0.00 | 0.43 | 0.00 | 83 | 1016.0 |
| 20260905072538 | 23 | 177 | 0.0 | 0.0 | 0.00 | 0.43 | 0.00 | 83 | 1013.4 |
| 20260905072317 | 23 | 176 | 0.0 | 0.0 | 0.00 | 0.43 | 0.00 | 83 | 1016.1 |
| 20260905072032 | 23 | 177 | 0.0 | 1.6 | 0.00 | 0.43 | 0.00 | 83 | 1013.4 |
| 20260905071833 | 24 | 177 | 0.0 | 1.6 | 0.00 | 0.43 | 0.00 | 83 | 1016.0 |
| 20260905071518 | 23 | 176 | 0.0 | 1.6 | 0.00 | 0.43 | 0.00 | 83 | 1013.3 |
| 20260905071350 | 24 | 177 | 0.0 | 1.6 | 0.00 | 0.43 | 0.00 | 82 | 1016.0 |
| 20260905071051 | 23 | 177 | 0.0 | 1.6 | 0.00 | 0.43 | 0.00 | 82 | 1013.3 |
| 20260905070827 | 24 | 177 | 0.0 | 1.6 | 0.00 | 0.43 | 0.00 | 82 | 1016.1 |
| 20260905070540 | 23 | 176 | 0.0 | 1.6 | 0.00 | 0.43 | 0.00 | 82 | 1013.5 |
| 20260905070324 | 24 | 176 | 0.0 | 1.6 | 0.00 | 0.43 | 0.00 | 82 | 1016.3 |
| 20260905070030 | 24 | 177 | 0.0 | 1.6 | 0.00 | 0.43 | 0.00 | 82 | 1013.6 |
| 20260905065821 | 24 | 177 | 0.0 | 0.0 | 0.00 | 0.43 | 0.00 | 81 | 1016.4 |
| 20260905065522 | 24 | 177 | 0.0 | 0.0 | 0.00 | 0.43 | 0.00 | 81 | 1013.6 |
| 20260905065318 | 24 | 177 | 0.0 | 0.0 | 0.00 | 0.43 | 0.00 | 81 | 1016.4 |
| 20260905065018 | 24 | 177 | 0.0 | 0.0 | 0.00 | 0.43 | 0.00 | 81 | 1013.6 |
| 20260905064814 | 24 | 177 | 0.0 | 0.0 | 0.00 | 0.43 | 0.00 | 81 | 1016.3 |
| 20260905064618 | 24 | 177 | 0.0 | 0.0 | 0.00 | 0.43 | 0.00 | 81 | 1013.6 |
| 20260905064331 | 24 | 177 | 0.0 | 0.0 | 0.00 | 0.43 | 0.00 | 81 | 1016.4 |
| 20260905064052 | 24 | 177 | 0.0 | 1.6 | 0.00 | 0.43 | 0.00 | 81 | 1013.6 |
| 20260905063848 | 24 | 176 | 0.0 | 1.6 | 0.00 | 0.43 | 0.00 | 81 | 1016.3 |
| 20260905063514 | 24 | 177 | 0.0 | 3.2 | 0.00 | 0.43 | 0.00 | 81 | 1013.5 |
| 20260905063346 | 24 | 177 | 0.0 | 3.2 | 0.00 | 0.43 | 0.00 | 81 | 1016.3 |
| 20260905063046 | 24 | 176 | 0.0 | 3.2 | 0.00 | 0.43 | 0.00 | 81 | 1013.5 |
| 20260905062844 | 25 | 177 | 1.6 | 3.2 | 0.00 | 0.43 | 0.00 | 81 | 1016.2 |
| 20260905062519 | 24 | 177 | 0.0 | 3.2 | 0.00 | 0.43 | 0.00 | 81 | 1013.5 |
| 20260905062320 | 25 | 177 | 1.6 | 3.2 | 0.00 | 0.43 | 0.00 | 81 | 1016.3 |
| 20260905062103 | 24 | 177 | 0.0 | 4.8 | 0.00 | 0.43 | 0.00 | 81 | 1013.6 |
| 20260905061818 | 25 | 177 | 1.6 | 4.8 | 0.00 | 0.43 | 0.00 | 81 | 1016.4 |
| 20260905061604 | 24 | 177 | 1.6 | 4.8 | 0.00 | 0.43 | 0.00 | 81 | 1013.6 |
| 20260905061316 | 25 | 177 | 3.2 | 4.8 | 0.00 | 0.43 | 0.00 | 81 | 1016.4 |
| 20260905061054 | 24 | 177 | 3.2 | 4.8 | 0.00 | 0.43 | 0.00 | 81 | 1013.6 |
| 20260905060854 | 25 | 177 | 3.2 | 4.8 | 0.00 | 0.43 | 0.00 | 81 | 1016.4 |
| 20260905060529 | 24 | 177 | 0.0 | 1.6 | 0.00 | 0.43 | 0.00 | 80 | 1013.6 |
| 20260905060330 | 25 | 177 | 0.0 | 1.6 | 0.00 | 0.43 | 0.00 | 80 | 1016.3 |
| 20260905060116 | 24 | 177 | 0.0 | 3.2 | 0.00 | 0.43 | 0.00 | 80 | 1013.6 |
| 20260905055825 | 25 | 177 | 0.0 | 3.2 | 0.00 | 0.43 | 0.00 | 80 | 1016.3 |
| 20260905055553 | 24 | 177 | 0.0 | 3.2 | 0.00 | 0.43 | 0.00 | 80 | 1013.5 |
| 20260905055323 | 25 | 177 | 1.6 | 3.2 | 0.00 | 0.43 | 0.00 | 80 | 1016.4 |
| 20260905055046 | 25 | 177 | 1.6 | 3.2 | 0.00 | 0.43 | 0.00 | 80 | 1013.6 |
| 20260905054842 | 25 | 176 | 1.6 | 3.2 | 0.00 | 0.43 | 0.00 | 80 | 1016.3 |
| 20260905054539 | 25 | 177 | 0.0 | 4.8 | 0.00 | 0.43 | 0.00 | 80 | 1013.6 |
| 20260905054340 | 25 | 176 | 1.6 | 4.8 | 0.00 | 0.43 | 0.00 | 80 | 1016.4 |
| 20260905054039 | 25 | 177 | 1.6 | 4.8 | 0.00 | 0.43 | 0.00 | 80 | 1013.5 |
| 20260905053831 | 25 | 177 | 3.2 | 4.8 | 0.00 | 0.43 | 0.00 | 80 | 1016.4 |
| 20260905053534 | 25 | 177 | 1.6 | 4.8 | 0.00 | 0.43 | 0.00 | 80 | 1013.5 |
| 20260905053329 | 25 | 177 | 1.6 | 4.8 | 0.00 | 0.43 | 0.00 | 80 | 1016.4 |
| 20260905053016 | 25 | 177 | 1.6 | 4.8 | 0.00 | 0.43 | 0.00 | 79 | 1013.6 |
| 20260905052828 | 25 | 177 | 1.6 | 4.8 | 0.00 | 0.43 | 0.00 | 79 | 1016.3 |
| 20260905052505 | 25 | 177 | 0.0 | 4.8 | 0.00 | 0.43 | 0.00 | 79 | 1013.5 |
| 20260905052345 | 25 | 177 | 1.6 | 4.8 | 0.00 | 0.43 | 0.00 | 79 | 1016.3 |
| 20260905052038 | 25 | 176 | 1.6 | 9.7 | 0.00 | 0.43 | 0.00 | 79 | 1013.4 |
| 20260905051822 | 25 | 177 | 1.6 | 11.3 | 0.00 | 0.43 | 0.00 | 79 | 1016.3 |
| 20260905051530 | 25 | 176 | 1.6 | 11.3 | 0.00 | 0.43 | 0.00 | 79 | 1013.5 |
| 20260905051320 | 25 | 176 | 4.8 | 12.9 | 0.00 | 0.43 | 0.00 | 79 | 1016.1 |
| 20260905051020 | 25 | 156 | 4.8 | 12.9 | 0.00 | 0.43 | 0.00 | 80 | 1013.4 |
| 20260905050839 | 25 | 150 | 6.4 | 12.9 | 0.00 | 0.43 | 0.00 | 80 | 1016.2 |
| 20260905050600 | 25 | 155 | 4.8 | 12.9 | 0.00 | 0.43 | 0.00 | 80 | 1013.4 |
| 20260905050330 | 25 | 136 | 4.8 | 12.9 | 0.00 | 0.43 | 0.00 | 80 | 1016.1 |
| 20260905050051 | 25 | 146 | 6.4 | 12.9 | 0.00 | 0.43 | 0.00 | 80 | 1013.5 |
| 20260905045838 | 25 | 145 | 6.4 | 12.9 | 0.00 | 0.43 | 0.43 | 80 | 1016.2 |
| 20260905045521 | 25 | 150 | 6.4 | 8.0 | 0.00 | 0.43 | 0.43 | 80 | 1013.5 |
| 20260905045331 | 25 | 162 | 6.4 | 9.7 | 0.00 | 0.43 | 0.43 | 80 | 1016.4 |
| 20260905045002 | 25 | 132 | 3.2 | 6.4 | 0.00 | 0.43 | 0.43 | 79 | 1013.6 |
| 20260905044830 | 25 | 132 | 3.2 | 6.4 | 0.00 | 0.43 | 0.43 | 79 | 1016.5 |
| 20260905044607 | 25 | 132 | 1.6 | 6.4 | 0.00 | 0.43 | 0.43 | 79 | 1013.7 |
| 20260905044329 | 25 | 132 | 3.2 | 6.4 | 0.00 | 0.43 | 0.43 | 79 | 1016.5 |
| 20260905044048 | 25 | 132 | 3.2 | 4.8 | 0.00 | 0.43 | 0.43 | 79 | 1013.6 |
| 20260905043828 | 25 | 131 | 3.2 | 4.8 | 0.00 | 0.43 | 0.43 | 78 | 1016.4 |
| 20260905043542 | 25 | 132 | 1.6 | 4.8 | 0.00 | 0.43 | 0.43 | 78 | 1013.5 |
| 20260905043326 | 25 | 132 | 1.6 | 4.8 | 0.00 | 0.43 | 0.43 | 78 | 1016.3 |
| 20260905043034 | 25 | 132 | 0.0 | 4.8 | 0.00 | 0.43 | 0.43 | 78 | 1013.5 |
| 20260905042826 | 25 | 132 | 3.2 | 4.8 | 0.00 | 0.43 | 0.43 | 78 | 1016.3 |
| 20260905042528 | 25 | 131 | 3.2 | 4.8 | 0.00 | 0.43 | 0.43 | 78 | 1013.5 |
| 20260905042324 | 25 | 132 | 3.2 | 4.8 | 0.00 | 0.43 | 0.43 | 77 | 1016.3 |
| 20260905042012 | 25 | 132 | 1.6 | 4.8 | 0.00 | 0.43 | 0.43 | 77 | 1013.5 |
| 20260905041823 | 25 | 132 | 1.6 | 3.2 | 0.00 | 0.43 | 0.43 | 77 | 1016.3 |
| 20260905041504 | 25 | 132 | 0.0 | 3.2 | 0.00 | 0.43 | 0.43 | 77 | 1013.5 |
| 20260905041323 | 26 | 132 | 1.6 | 3.2 | 0.00 | 0.43 | 0.43 | 77 | 1016.3 |
| 20260905041102 | 25 | 131 | 0.0 | 3.2 | 0.00 | 0.43 | 0.43 | 77 | 1013.6 |
| 20260905040821 | 26 | 131 | 1.6 | 3.2 | 0.00 | 0.43 | 0.43 | 76 | 1016.3 |
| 20260905040552 | 25 | 133 | 0.0 | 3.2 | 0.00 | 0.43 | 0.43 | 76 | 1013.4 |
| 20260905040320 | 26 | 132 | 1.6 | 3.2 | 0.00 | 0.43 | 0.43 | 76 | 1016.3 |
| 20260905040042 | 26 | 132 | 1.6 | 3.2 | 0.00 | 0.43 | 0.43 | 76 | 1013.5 |
| 20260905035838 | 26 | 132 | 1.6 | 3.2 | 0.00 | 0.43 | 0.43 | 76 | 1016.3 |
| 20260905035533 | 26 | 132 | 1.6 | 3.2 | 0.00 | 0.43 | 0.43 | 76 | 1013.4 |
| 20260905035330 | 26 | 132 | 1.6 | 3.2 | 0.00 | 0.43 | 0.43 | 75 | 1016.2 |
| 20260905035021 | 26 | 132 | 0.0 | 4.8 | 0.00 | 0.43 | 0.43 | 75 | 1013.4 |
| 20260905034829 | 26 | 131 | 1.6 | 4.8 | 0.00 | 0.43 | 0.43 | 75 | 1016.2 |
| 20260905034508 | 26 | 131 | 0.0 | 4.8 | 0.00 | 0.43 | 0.43 | 75 | 1013.3 |
| 20260905034350 | 26 | 131 | 1.6 | 4.8 | 0.00 | 0.43 | 0.43 | 75 | 1016.1 |
| 20260905034041 | 26 | 131 | 0.0 | 3.2 | 0.00 | 0.43 | 0.43 | 74 | 1013.3 |
| 20260905033828 | 26 | 132 | 0.0 | 4.8 | 0.00 | 0.43 | 0.43 | 74 | 1016.0 |
| 20260905033532 | 26 | 132 | 0.0 | 4.8 | 0.00 | 0.43 | 0.43 | 74 | 1013.2 |
| 20260905033326 | 26 | 132 | 1.6 | 4.8 | 0.00 | 0.43 | 0.43 | 74 | 1016.0 |
| 20260905033028 | 26 | 132 | 0.0 | 4.8 | 0.00 | 0.43 | 0.43 | 74 | 1013.2 |
| 20260905032826 | 26 | 132 | 3.2 | 4.8 | 0.00 | 0.43 | 0.43 | 73 | 1016.0 |
| 20260905032512 | 26 | 131 | 0.0 | 1.6 | 0.00 | 0.43 | 0.43 | 73 | 1013.1 |
| 20260905032326 | 26 | 132 | 1.6 | 1.6 | 0.00 | 0.43 | 0.43 | 73 | 1015.9 |
| 20260905032010 | 26 | 132 | 0.0 | 0.0 | 0.00 | 0.43 | 0.43 | 73 | 1013.3 |
| 20260905031825 | 26 | 132 | 0.0 | 0.0 | 0.00 | 0.43 | 0.43 | 73 | 1016.0 |
| 20260905031558 | 26 | 132 | 0.0 | 0.0 | 0.00 | 0.43 | 0.43 | 73 | 1013.3 |
| 20260905031321 | 26 | 132 | 0.0 | 0.0 | 0.00 | 0.43 | 0.43 | 72 | 1016.0 |
| 20260905031051 | 26 | 131 | 0.0 | 0.0 | 0.00 | 0.43 | 0.43 | 72 | 1013.2 |
| 20260905030840 | 26 | 132 | 0.0 | 0.0 | 0.00 | 0.43 | 0.43 | 72 | 1015.9 |
| 20260905030528 | 26 | 132 | 0.0 | 0.0 | 0.00 | 0.43 | 0.43 | 72 | 1013.1 |
| 20260905030336 | 26 | 131 | 0.0 | 1.6 | 0.00 | 0.43 | 0.43 | 72 | 1015.8 |
| 20260905030058 | 26 | 132 | 0.0 | 1.6 | 0.00 | 0.43 | 0.43 | 72 | 1012.9 |
| 20260905025832 | 26 | 131 | 0.0 | 1.6 | 0.00 | 0.43 | 0.43 | 72 | 1015.7 |
| 20260905025532 | 26 | 131 | 0.0 | 1.6 | 0.00 | 0.43 | 0.43 | 73 | 1013.0 |
| 20260905025350 | 26 | 131 | 0.0 | 3.2 | 0.00 | 0.43 | 0.43 | 72 | 1015.7 |
| 20260905025056 | 26 | 132 | 0.0 | 3.2 | 0.00 | 0.43 | 0.43 | 73 | 1012.9 |
| 20260905024829 | 26 | 131 | 0.0 | 3.2 | 0.00 | 0.43 | 0.43 | 73 | 1015.7 |
| 20260905024556 | 26 | 132 | 0.0 | 3.2 | 0.00 | 0.43 | 0.43 | 73 | 1013.0 |
| 20260905024326 | 26 | 132 | 1.6 | 3.2 | 0.00 | 0.43 | 0.43 | 73 | 1015.8 |
| 20260905024037 | 26 | 131 | 0.0 | 4.8 | 0.00 | 0.43 | 0.43 | 72 | 1013.0 |
| 20260905023824 | 27 | 132 | 1.6 | 4.8 | 0.00 | 0.43 | 0.43 | 72 | 1015.7 |
| 20260905023530 | 26 | 132 | 1.6 | 4.8 | 0.00 | 0.43 | 0.43 | 72 | 1012.9 |
| 20260905023322 | 26 | 132 | 1.6 | 4.8 | 0.00 | 0.43 | 0.43 | 72 | 1015.6 |
| 20260905023020 | 26 | 132 | 3.2 | 4.8 | 0.00 | 0.43 | 0.43 | 72 | 1012.7 |
| 20260905022840 | 26 | 131 | 3.2 | 6.4 | 0.00 | 0.43 | 0.43 | 72 | 1015.4 |
| 20260905022543 | 26 | 127 | 1.6 | 6.4 | 0.00 | 0.43 | 0.43 | 72 | 1012.5 |
| 20260905022317 | 27 | 99 | 1.6 | 6.4 | 0.00 | 0.43 | 0.43 | 72 | 1015.4 |
| 20260905022036 | 26 | 112 | 3.2 | 6.4 | 0.00 | 0.43 | 0.43 | 72 | 1012.5 |
| 20260905021815 | 27 | 106 | 4.8 | 6.4 | 0.00 | 0.43 | 0.43 | 72 | 1015.3 |
| 20260905021524 | 26 | 104 | 3.2 | 6.4 | 0.00 | 0.43 | 0.43 | 72 | 1012.5 |
| 20260905021329 | 27 | 124 | 4.8 | 6.4 | 0.00 | 0.43 | 0.43 | 71 | 1015.3 |
| 20260905021011 | 27 | 104 | 3.2 | 6.4 | 0.00 | 0.43 | 0.43 | 71 | 1012.5 |
| 20260905020829 | 27 | 203 | 4.8 | 6.4 | 0.00 | 0.43 | 0.43 | 71 | 1015.3 |
| 20260905020502 | 27 | 203 | 1.6 | 4.8 | 0.00 | 0.43 | 0.43 | 70 | 1012.3 |
| 20260905020326 | 27 | 203 | 3.2 | 4.8 | 0.00 | 0.43 | 0.43 | 70 | 1015.0 |
| 20260905020037 | 27 | 204 | 1.6 | 4.8 | 0.00 | 0.43 | 0.43 | 70 | 1012.4 |
| 20260905015823 | 27 | 203 | 3.2 | 4.8 | 0.00 | 0.43 | 0.43 | 69 | 1015.1 |
| 20260905015526 | 27 | 204 | 1.6 | 4.8 | 0.00 | 0.43 | 0.43 | 69 | 1012.2 |
| 20260905015342 | 27 | 204 | 3.2 | 4.8 | 0.00 | 0.43 | 0.43 | 69 | 1015.0 |
| 20260905015050 | 27 | 204 | 1.6 | 4.8 | 0.00 | 0.43 | 0.43 | 69 | 1012.3 |
| 20260905014818 | 28 | 204 | 3.2 | 4.8 | 0.00 | 0.43 | 0.43 | 68 | 1015.0 |
| 20260905014540 | 27 | 203 | 1.6 | 4.8 | 0.00 | 0.43 | 0.43 | 68 | 1012.2 |
| 20260905014316 | 28 | 203 | 3.2 | 4.8 | 0.00 | 0.43 | 0.43 | 68 | 1015.0 |
| 20260905014030 | 27 | 204 | 1.6 | 4.8 | 0.00 | 0.43 | 0.43 | 67 | 1012.2 |
| 20260905013835 | 28 | 204 | 1.6 | 3.2 | 0.00 | 0.43 | 0.43 | 67 | 1015.0 |
| 20260905013554 | 28 | 204 | 1.6 | 4.8 | 0.00 | 0.43 | 0.43 | 67 | 1012.1 |
| 20260905013331 | 28 | 204 | 1.6 | 6.4 | 0.00 | 0.43 | 0.43 | 67 | 1015.0 |
| 20260905013016 | 28 | 204 | 1.6 | 6.4 | 0.00 | 0.43 | 0.43 | 66 | 1012.1 |
| 20260905012830 | 28 | 203 | 3.2 | 6.4 | 0.00 | 0.43 | 0.43 | 66 | 1014.9 |
| 20260905012509 | 28 | 203 | 3.2 | 4.8 | 0.00 | 0.43 | 0.43 | 66 | 1012.0 |
| 20260905012347 | 28 | 204 | 3.2 | 4.8 | 0.00 | 0.43 | 0.43 | 66 | 1014.9 |
| 20260905012040 | 28 | 204 | 3.2 | 6.4 | 0.00 | 0.43 | 0.43 | 66 | 1012.0 |
| 20260905011824 | 28 | 203 | 3.2 | 6.4 | 0.00 | 0.43 | 0.43 | 65 | 1014.7 |
| 20260905011529 | 28 | 203 | 1.6 | 6.4 | 0.00 | 0.43 | 0.43 | 65 | 1012.0 |
| 20260905011322 | 29 | 204 | 3.2 | 6.4 | 0.00 | 0.43 | 0.43 | 65 | 1014.8 |
| 20260905011025 | 28 | 204 | 1.6 | 6.4 | 0.00 | 0.43 | 0.43 | 64 | 1011.9 |
| 20260905010820 | 29 | 204 | 3.2 | 6.4 | 0.00 | 0.43 | 0.43 | 64 | 1014.8 |
| 20260905010502 | 29 | 204 | 3.2 | 6.4 | 0.00 | 0.43 | 0.43 | 63 | 1011.9 |
| 20260905010318 | 29 | 204 | 4.8 | 6.4 | 0.00 | 0.43 | 0.43 | 63 | 1014.8 |
| 20260905005836 | 30 | 201 | 3.2 | 4.8 | 0.00 | 0.43 | 0.43 | 62 | 1014.8 |
| 20260905005516 | 30 | 195 | 0.0 | 4.8 | 0.00 | 0.43 | 0.43 | 62 | 1011.9 |
| 20260905005354 | 30 | 195 | 3.2 | 4.8 | 0.00 | 0.43 | 0.43 | 61 | 1014.8 |
| 20260905005046 | 30 | 195 | 0.0 | 0.0 | 0.00 | 0.43 | 0.43 | 61 | 1011.8 |
| 20260905004830 | 30 | 195 | 0.0 | 0.0 | 0.00 | 0.43 | 0.43 | 61 | 1014.7 |
| 20260905004507 | 30 | 182 | 0.0 | 0.0 | 0.00 | 0.43 | 0.43 | 60 | 1011.9 |
| 20260905004346 | 30 | 218 | 0.0 | 0.0 | 0.00 | 0.43 | 0.43 | 60 | 1014.6 |
| 20260905004040 | 30 | 218 | 0.0 | 0.0 | 0.00 | 0.43 | 0.43 | 60 | 1011.9 |
| 20260905003823 | 30 | 218 | 0.0 | 0.0 | 0.00 | 0.43 | 0.43 | 59 | 1014.7 |
| 20260905003535 | 30 | 218 | 0.0 | 0.0 | 0.00 | 0.43 | 0.43 | 59 | 1011.8 |
| 20260905003322 | 31 | 201 | 0.0 | 0.0 | 0.00 | 0.43 | 0.43 | 58 | 1014.5 |
| 20260905003025 | 30 | 227 | 0.0 | 0.0 | 0.00 | 0.43 | 0.43 | 58 | 1011.7 |
| 20260905002840 | 31 | 202 | 0.0 | 0.0 | 0.00 | 0.43 | 0.43 | 57 | 1014.7 |
| 20260905002548 | 31 | 194 | 0.0 | 0.0 | 0.00 | 0.43 | 0.43 | 57 | 1011.9 |
| 20260905002316 | 31 | 211 | 0.0 | 0.0 | 0.00 | 0.43 | 0.43 | 56 | 1014.6 |
| 20260905002038 | 31 | 218 | 0.0 | 0.0 | 0.00 | 0.43 | 0.43 | 56 | 1011.7 |
| 20260905001851 | 31 | 234 | 0.0 | 0.0 | 0.00 | 0.43 | 0.43 | 55 | 1014.5 |
| 20260905001603 | 31 | 191 | 0.0 | 0.0 | 0.00 | 0.43 | 0.43 | 55 | 1011.6 |
| 20260905001328 | 32 | 187 | 0.0 | 0.0 | 0.00 | 0.43 | 0.43 | 53 | 1014.5 |
| 20260905001053 | 31 | 172 | 0.0 | 0.0 | 0.00 | 0.43 | 0.43 | 52 | 1011.5 |
| 20260905000826 | 32 | 178 | 0.0 | 0.0 | 0.00 | 0.43 | 0.43 | 52 | 1014.3 |
| 20260905000550 | 32 | 162 | 0.0 | 0.0 | 0.00 | 0.43 | 0.43 | 52 | 1011.3 |
| 20260905000325 | 32 | 157 | 0.0 | 0.0 | 0.00 | 0.43 | 0.43 | 52 | 1014.2 |
| 20260905000048 | 32 | 143 | 0.0 | 0.0 | 0.00 | 0.43 | 0.43 | 52 | 1011.3 |
| 20260904235824 | 32 | 154 | 0.0 | 0.0 | 0.00 | 0.43 | 0.43 | 52 | 1014.2 |
| 20260904235547 | 32 | 153 | 0.0 | 0.0 | 0.00 | 0.43 | 0.43 | 52 | 1011.3 |
| 20260904235322 | 32 | 165 | 0.0 | 0.0 | 0.00 | 0.43 | 0.43 | 52 | 1014.0 |
| 20260904235043 | 32 | 164 | 0.0 | 0.0 | 0.00 | 0.43 | 0.43 | 52 | 1011.1 |
| 20260904234820 | 32 | 130 | 0.0 | 0.0 | 0.00 | 0.43 | 0.43 | 52 | 1014.0 |
| 20260904234534 | 32 | 133 | 0.0 | 0.0 | 0.00 | 0.43 | 0.43 | 51 | 1011.2 |
| 20260904234320 | 32 | 143 | 0.0 | 0.0 | 0.00 | 0.43 | 0.43 | 51 | 1013.9 |
| 20260904234031 | 32 | 160 | 0.0 | 0.0 | 0.00 | 0.43 | 0.43 | 51 | 1011.0 |
| 20260904233839 | 32 | 129 | 0.0 | 0.0 | 0.00 | 0.43 | 0.43 | 51 | 1013.8 |
| 20260904233515 | 32 | 160 | 0.0 | 0.0 | 0.00 | 0.43 | 0.43 | 51 | 1010.9 |
| 20260904233331 | 32 | 168 | 0.0 | 0.0 | 0.00 | 0.43 | 0.43 | 51 | 1013.8 |
| 20260904233002 | 32 | 108 | 0.0 | 0.0 | 0.00 | 0.43 | 0.43 | 51 | 1010.9 |
| 20260904232829 | 32 | 139 | 0.0 | 0.0 | 0.00 | 0.43 | 0.43 | 51 | 1013.7 |
| 20260904232558 | 32 | 149 | 0.0 | 0.0 | 0.00 | 0.43 | 0.43 | 52 | 1010.9 |
| 20260904232329 | 32 | 163 | 0.0 | 0.0 | 0.00 | 0.43 | 0.43 | 51 | 1013.7 |
| 20260904232046 | 32 | 154 | 0.0 | 0.0 | 0.00 | 0.43 | 0.43 | 52 | 1010.8 |
| 20260904231828 | 32 | 154 | 0.0 | 0.0 | 0.00 | 0.43 | 0.43 | 51 | 1013.6 |
| 20260904231550 | 32 | 159 | 0.0 | 0.0 | 0.00 | 0.43 | 0.43 | 51 | 1010.9 |
| 20260904231326 | 32 | 173 | 0.0 | 0.0 | 0.00 | 0.43 | 0.43 | 51 | 1013.8 |
| 20260904231028 | 32 | 170 | 0.0 | 0.0 | 0.00 | 0.43 | 0.43 | 50 | 1010.8 |
| 20260904230826 | 32 | 203 | 0.0 | 0.0 | 0.00 | 0.43 | 0.43 | 50 | 1013.8 |
| 20260904230514 | 32 | 201 | 0.0 | 0.0 | 0.00 | 0.43 | 0.43 | 51 | 1010.8 |
| 20260904230325 | 33 | 147 | 0.0 | 0.0 | 0.00 | 0.43 | 0.43 | 50 | 1013.8 |
| 20260904230015 | 32 | 184 | 0.0 | 0.0 | 0.00 | 0.43 | 0.43 | 49 | 1010.9 |
| 20260904225823 | 33 | 144 | 0.0 | 0.0 | 0.00 | 0.43 | 0.43 | 49 | 1013.7 |
| 20260904225603 | 32 | 181 | 0.0 | 0.0 | 0.00 | 0.43 | 0.43 | 50 | 1010.9 |
| 20260904225323 | 32 | 113 | 0.0 | 0.0 | 0.00 | 0.43 | 0.43 | 50 | 1013.8 |
| 20260904225056 | 32 | 137 | 0.0 | 0.0 | 0.00 | 0.43 | 0.43 | 50 | 1010.9 |
| 20260904224821 | 32 | 170 | 0.0 | 0.0 | 0.00 | 0.43 | 0.43 | 49 | 1013.8 |
| 20260904224547 | 32 | 158 | 0.0 | 0.0 | 0.00 | 0.43 | 0.43 | 50 | 1010.8 |
| 20260904224341 | 33 | 138 | 0.0 | 0.0 | 0.00 | 0.43 | 0.43 | 49 | 1013.8 |
| 20260904224022 | 33 | 160 | 0.0 | 0.0 | 0.00 | 0.43 | 0.43 | 49 | 1010.9 |
| 20260904223838 | 33 | 150 | 0.0 | 0.0 | 0.00 | 0.43 | 0.43 | 50 | 1013.8 |
| 20260904223513 | 33 | 133 | 0.0 | 0.0 | 0.00 | 0.43 | 0.43 | 50 | 1011.0 |
| 20260904223330 | 33 | 116 | 0.0 | 0.0 | 0.00 | 0.43 | 0.43 | 51 | 1013.8 |
| 20260904223058 | 32 | 151 | 0.0 | 0.0 | 0.00 | 0.43 | 0.43 | 51 | 1010.9 |
| 20260904222829 | 33 | 147 | 0.0 | 0.0 | 0.00 | 0.43 | 0.43 | 50 | 1014.0 |
| 20260904222549 | 32 | 143 | 0.0 | 0.0 | 0.00 | 0.43 | 0.43 | 51 | 1011.1 |
| 20260904222327 | 33 | 193 | 0.0 | 0.0 | 0.00 | 0.43 | 0.43 | 52 | 1014.0 |
| 20260904222041 | 32 | 131 | 0.0 | 0.0 | 0.00 | 0.43 | 0.43 | 51 | 1011.0 |
| 20260904221825 | 33 | 146 | 0.0 | 0.0 | 0.00 | 0.43 | 0.43 | 52 | 1013.8 |
| 20260904221541 | 32 | 183 | 0.0 | 0.0 | 0.00 | 0.43 | 0.43 | 53 | 1011.0 |
| 20260904221342 | 32 | 152 | 0.0 | 0.0 | 0.00 | 0.43 | 0.43 | 52 | 1014.0 |
| 20260904221100 | 32 | 154 | 0.0 | 0.0 | 0.00 | 0.43 | 0.43 | 53 | 1011.2 |
| 20260904220820 | 32 | 186 | 0.0 | 0.0 | 0.00 | 0.43 | 0.43 | 53 | 1014.1 |
| 20260904220554 | 32 | 188 | 0.0 | 0.0 | 0.00 | 0.43 | 0.43 | 54 | 1011.1 |
| 20260904220340 | 32 | 165 | 0.0 | 0.0 | 0.00 | 0.43 | 0.43 | 54 | 1014.2 |
| 20260904220027 | 32 | 160 | 0.0 | 0.0 | 0.00 | 0.43 | 0.43 | 54 | 1011.1 |
| 20260904215817 | 32 | 168 | 0.0 | 0.0 | 0.00 | 0.43 | 0.43 | 54 | 1014.1 |
| 20260904215519 | 32 | 154 | 0.0 | 0.0 | 0.00 | 0.43 | 0.43 | 54 | 1011.1 |
| 20260904215316 | 32 | 141 | 0.0 | 0.0 | 0.00 | 0.43 | 0.43 | 54 | 1014.1 |
| 20260904215003 | 32 | 181 | 0.0 | 0.0 | 0.00 | 0.43 | 0.43 | 56 | 1011.3 |
| 20260904214817 | 32 | 204 | 0.0 | 0.0 | 0.00 | 0.43 | 0.43 | 59 | 1014.3 |
| 20260904214600 | 32 | 180 | 0.0 | 0.0 | 0.00 | 0.43 | 0.43 | 59 | 1011.3 |
| 20260904214316 | 32 | 269 | 0.0 | 0.0 | 0.00 | 0.43 | 0.43 | 59 | 1014.5 |
| 20260904214051 | 32 | 299 | 0.0 | 0.0 | 0.00 | 0.43 | 0.43 | 59 | 1011.3 |
| 20260904213834 | 32 | 287 | 0.0 | 0.0 | 0.00 | 0.43 | 0.43 | 59 | 1014.2 |
| 20260904213516 | 32 | 278 | 0.0 | 0.0 | 0.00 | 0.43 | 0.43 | 59 | 1011.2 |
| 20260904213352 | 32 | 278 | 0.0 | 0.0 | 0.00 | 0.43 | 0.43 | 58 | 1014.3 |
| 20260904213048 | 32 | 295 | 0.0 | 0.0 | 0.00 | 0.43 | 0.43 | 58 | 1011.4 |
| 20260904212829 | 32 | 264 | 0.0 | 0.0 | 0.00 | 0.43 | 0.43 | 56 | 1014.4 |
| 20260904212540 | 32 | 144 | 0.0 | 0.0 | 0.00 | 0.43 | 0.43 | 54 | 1011.5 |
| 20260904212347 | 32 | 144 | 0.0 | 0.0 | 0.00 | 0.43 | 0.43 | 53 | 1014.5 |
| 20260904212004 | 32 | 116 | 0.0 | 0.0 | 0.00 | 0.43 | 0.43 | 53 | 1011.6 |
| 20260904211842 | 32 | 118 | 0.0 | 0.0 | 0.00 | 0.43 | 0.43 | 54 | 1014.6 |
| 20260904211535 | 32 | 152 | 0.0 | 0.0 | 0.00 | 0.43 | 0.43 | 53 | 1011.7 |
| 20260904211321 | 32 | 180 | 0.0 | 0.0 | 0.00 | 0.43 | 0.43 | 53 | 1014.7 |
| 20260904211031 | 32 | 158 | 0.0 | 0.0 | 0.00 | 0.43 | 0.43 | 53 | 1011.8 |
| 20260904210820 | 32 | 159 | 0.0 | 0.0 | 0.00 | 0.43 | 0.43 | 53 | 1014.7 |
| 20260904210520 | 32 | 155 | 0.0 | 0.0 | 0.00 | 0.43 | 0.43 | 53 | 1011.8 |
| 20260904210318 | 32 | 144 | 0.0 | 0.0 | 0.00 | 0.43 | 0.43 | 53 | 1014.8 |
| 20260904210021 | 32 | 143 | 0.0 | 0.0 | 0.00 | 0.43 | 0.43 | 53 | 1011.8 |
| 20260904205816 | 33 | 137 | 0.0 | 0.0 | 0.00 | 0.43 | 0.43 | 53 | 1014.8 |
| 20260904205513 | 32 | 138 | 0.0 | 0.0 | 0.00 | 0.43 | 0.43 | 53 | 1011.9 |
| 20260904205314 | 33 | 132 | 0.0 | 0.0 | 0.00 | 0.43 | 0.43 | 53 | 1014.8 |
| 20260904205101 | 33 | 165 | 0.0 | 0.0 | 0.00 | 0.43 | 0.43 | 53 | 1011.8 |
| 20260904204832 | 33 | 134 | 0.0 | 0.0 | 0.00 | 0.43 | 0.43 | 54 | 1014.8 |
| 20260904204555 | 33 | 178 | 0.0 | 0.0 | 0.00 | 0.43 | 0.43 | 54 | 1011.9 |
| 20260904204330 | 33 | 174 | 0.0 | 0.0 | 0.00 | 0.43 | 0.43 | 54 | 1014.9 |
| 20260904204048 | 33 | 147 | 0.0 | 0.0 | 0.00 | 0.43 | 0.43 | 54 | 1012.0 |
| 20260904203829 | 33 | 223 | 0.0 | 0.0 | 0.00 | 0.43 | 0.43 | 55 | 1014.9 |
| 20260904203537 | 32 | 264 | 0.0 | 0.0 | 0.00 | 0.43 | 0.43 | 57 | 1012.0 |
| 20260904203326 | 32 | 236 | 0.0 | 0.0 | 0.00 | 0.43 | 0.43 | 57 | 1014.9 |
| 20260904203030 | 32 | 237 | 0.0 | 0.0 | 0.00 | 0.43 | 0.43 | 57 | 1012.0 |
| 20260904202824 | 32 | 235 | 0.0 | 0.0 | 0.00 | 0.43 | 0.43 | 56 | 1014.9 |
| 20260904202519 | 32 | 196 | 0.0 | 0.0 | 0.00 | 0.43 | 0.43 | 56 | 1012.1 |
| 20260904202321 | 32 | 181 | 0.0 | 0.0 | 0.00 | 0.43 | 0.43 | 56 | 1015.2 |
| 20260904202001 | 32 | 165 | 0.0 | 0.0 | 0.00 | 0.43 | 0.43 | 58 | 1012.2 |
| 20260904201819 | 32 | 203 | 0.0 | 0.0 | 0.00 | 0.43 | 0.43 | 57 | 1015.2 |
| 20260904201557 | 32 | 70 | 0.0 | 0.0 | 0.00 | 0.43 | 0.43 | 58 | 1012.2 |
| 20260904201400 | 32 | 138 | 0.0 | 0.0 | 0.00 | 0.43 | 0.43 | 57 | 1015.2 |
| 20260904201025 | 31 | 127 | 0.0 | 0.0 | 0.00 | 0.43 | 0.43 | 58 | 1012.2 |
| 20260904200830 | 32 | 147 | 0.0 | 0.0 | 0.00 | 0.43 | 0.43 | 55 | 1015.1 |
| 20260904200507 | 31 | 193 | 0.0 | 0.0 | 0.00 | 0.43 | 0.43 | 60 | 1012.2 |
| 20260904200349 | 31 | 167 | 0.0 | 0.0 | 0.00 | 0.43 | 0.43 | 58 | 1015.2 |
| 20260904200056 | 31 | 162 | 0.0 | 0.0 | 0.00 | 0.43 | 0.43 | 61 | 1012.3 |
| 20260904195826 | 31 | 162 | 0.0 | 0.0 | 0.00 | 0.43 | 0.43 | 59 | 1015.4 |
| 20260904195533 | 31 | 162 | 0.0 | 0.0 | 0.00 | 0.43 | 0.43 | 62 | 1012.3 |
| 20260904195324 | 31 | 162 | 0.0 | 0.0 | 0.00 | 0.43 | 0.43 | 66 | 1015.4 |
| 20260904195011 | 31 | 91 | 0.0 | 0.0 | 0.00 | 0.43 | 0.43 | 70 | 1012.4 |
| 20260904194842 | 31 | 349 | 0.0 | 0.0 | 0.00 | 0.43 | 0.43 | 72 | 1015.3 |
| 20260904194545 | 31 | 299 | 0.0 | 0.0 | 0.00 | 0.43 | 0.43 | 72 | 1012.5 |
| 20260904194319 | 31 | 359 | 0.0 | 0.0 | 0.00 | 0.43 | 0.43 | 72 | 1015.5 |
| 20260904194035 | 30 | 289 | 0.0 | 0.0 | 0.00 | 0.43 | 0.43 | 73 | 1012.7 |
| 20260904193837 | 31 | 272 | 0.0 | 0.0 | 0.00 | 0.43 | 0.43 | 73 | 1015.9 |
| 20260904193559 | 30 | 250 | 0.0 | 0.0 | 0.00 | 0.43 | 0.43 | 72 | 1012.8 |
| 20260904193314 | 30 | 270 | 0.0 | 0.0 | 0.00 | 0.43 | 0.43 | 74 | 1015.9 |
| 20260904193050 | 30 | 333 | 0.0 | 0.0 | 0.00 | 0.43 | 0.43 | 74 | 1012.9 |
| 20260904192832 | 30 | 210 | 0.0 | 0.0 | 0.00 | 0.43 | 0.43 | 75 | 1016.0 |
| 20260904192539 | 30 | 249 | 0.0 | 0.0 | 0.00 | 0.43 | 0.43 | 75 | 1012.9 |
| 20260904192350 | 30 | 239 | 0.0 | 0.0 | 0.00 | 0.43 | 0.43 | 75 | 1016.0 |
| 20260904192101 | 30 | 233 | 0.0 | 0.0 | 0.00 | 0.43 | 0.43 | 75 | 1013.0 |
| 20260904191826 | 30 | 252 | 0.0 | 0.0 | 0.00 | 0.43 | 0.43 | 75 | 1016.0 |
| 20260904191551 | 29 | 259 | 0.0 | 0.0 | 0.00 | 0.43 | 0.43 | 76 | 1013.0 |
| 20260904191324 | 29 | 293 | 0.0 | 0.0 | 0.00 | 0.43 | 0.43 | 76 | 1016.0 |
| 20260904191041 | 29 | 280 | 0.0 | 0.0 | 0.00 | 0.43 | 0.43 | 76 | 1013.1 |
| 20260904190822 | 29 | 267 | 0.0 | 0.0 | 0.00 | 0.43 | 0.43 | 76 | 1016.1 |
| 20260904190531 | 29 | 289 | 0.0 | 0.0 | 0.00 | 0.43 | 0.43 | 76 | 1013.1 |
| 20260904190320 | 29 | 237 | 0.0 | 0.0 | 0.00 | 0.43 | 0.43 | 77 | 1016.1 |
| 20260904190022 | 28 | 251 | 0.0 | 0.0 | 0.00 | 0.43 | 0.43 | 77 | 1013.2 |
| 20260904185817 | 28 | 259 | 0.0 | 0.0 | 0.00 | 0.43 | 0.43 | 76 | 1016.2 |
| 20260904185546 | 28 | 224 | 0.0 | 0.0 | 0.00 | 0.43 | 0.43 | 76 | 1013.1 |
| 20260904185315 | 28 | 235 | 0.0 | 0.0 | 0.00 | 0.43 | 0.43 | 76 | 1016.1 |
| 20260904185037 | 28 | 273 | 0.0 | 0.0 | 0.00 | 0.43 | 0.43 | 77 | 1013.1 |
| 20260904184833 | 28 | 260 | 0.0 | 0.0 | 0.00 | 0.43 | 0.43 | 76 | 1016.3 |
| 20260904184536 | 28 | 271 | 0.0 | 0.0 | 0.00 | 0.43 | 0.43 | 77 | 1013.3 |
| 20260904184351 | 28 | 276 | 0.0 | 0.0 | 0.00 | 0.43 | 0.43 | 78 | 1016.4 |
| 20260904184053 | 28 | 250 | 0.0 | 0.0 | 0.00 | 0.43 | 0.43 | 78 | 1013.3 |
| 20260904183829 | 28 | 272 | 0.0 | 0.0 | 0.00 | 0.43 | 0.43 | 78 | 1016.3 |
| 20260904183547 | 28 | 284 | 0.0 | 0.0 | 0.00 | 0.43 | 0.43 | 78 | 1013.3 |
| 20260904183327 | 28 | 264 | 0.0 | 0.0 | 0.00 | 0.43 | 0.43 | 79 | 1016.5 |
| 20260904183041 | 28 | 250 | 0.0 | 0.0 | 0.00 | 0.43 | 0.43 | 79 | 1013.4 |
| 20260904182825 | 28 | 270 | 0.0 | 0.0 | 0.00 | 0.43 | 0.43 | 78 | 1016.6 |
| 20260904182541 | 28 | 264 | 0.0 | 0.0 | 0.00 | 0.43 | 0.43 | 79 | 1013.6 |
| 20260904182323 | 28 | 240 | 0.0 | 0.0 | 0.00 | 0.43 | 0.43 | 79 | 1016.6 |
| 20260904182021 | 28 | 214 | 0.0 | 0.0 | 0.00 | 0.43 | 0.43 | 80 | 1013.7 |
| 20260904181821 | 28 | 258 | 0.0 | 0.0 | 0.00 | 0.43 | 0.43 | 80 | 1016.8 |
| 20260904181505 | 27 | 224 | 0.0 | 0.0 | 0.00 | 0.43 | 0.43 | 81 | 1014.0 |
| 20260904181339 | 28 | 265 | 0.0 | 0.0 | 0.00 | 0.43 | 0.43 | 81 | 1016.9 |
| 20260904181039 | 27 | 256 | 0.0 | 0.0 | 0.00 | 0.43 | 0.43 | 81 | 1013.9 |
| 20260904180836 | 27 | 269 | 0.0 | 0.0 | 0.00 | 0.43 | 0.43 | 81 | 1016.9 |
| 20260904180601 | 27 | 259 | 0.0 | 0.0 | 0.00 | 0.43 | 0.43 | 82 | 1014.0 |
| 20260904180333 | 27 | 252 | 0.0 | 0.0 | 0.00 | 0.43 | 0.43 | 83 | 1017.1 |
| 20260904180052 | 27 | 237 | 0.0 | 0.0 | 0.00 | 0.43 | 0.43 | 82 | 1014.1 |
| 20260904175831 | 27 | 257 | 0.0 | 0.0 | 0.00 | 0.43 | 0.43 | 83 | 1017.1 |
| 20260904175553 | 27 | 241 | 0.0 | 0.0 | 0.00 | 0.43 | 0.43 | 83 | 1014.2 |
| 20260904175346 | 27 | 263 | 0.0 | 0.0 | 0.00 | 0.43 | 0.43 | 83 | 1017.2 |
| 20260904175025 | 27 | 224 | 0.0 | 0.0 | 0.00 | 0.43 | 0.43 | 84 | 1014.2 |
| 20260904174842 | 27 | 229 | 0.0 | 0.0 | 0.00 | 0.43 | 0.43 | 85 | 1017.2 |
| 20260904174553 | 27 | 241 | 0.0 | 0.0 | 0.00 | 0.43 | 0.43 | 86 | 1014.2 |
| 20260904174318 | 27 | 264 | 0.0 | 0.0 | 0.00 | 0.43 | 0.43 | 85 | 1017.2 |
| 20260904174044 | 26 | 218 | 0.0 | 0.0 | 0.00 | 0.43 | 0.43 | 85 | 1014.2 |
| 20260904173816 | 27 | 227 | 0.0 | 0.0 | 0.00 | 0.43 | 0.43 | 86 | 1017.3 |
| 20260904173538 | 26 | 247 | 0.0 | 0.0 | 0.00 | 0.43 | 0.43 | 86 | 1014.2 |
| 20260904173352 | 26 | 229 | 0.0 | 0.0 | 0.00 | 0.43 | 0.43 | 86 | 1017.3 |
| 20260904173006 | 26 | 240 | 0.0 | 6.4 | 0.00 | 0.43 | 0.43 | 87 | 1014.3 |
| 20260904172847 | 26 | 241 | 0.0 | 6.4 | 0.00 | 0.43 | 0.43 | 87 | 1017.4 |
| 20260904172539 | 26 | 260 | 0.0 | 6.4 | 0.00 | 0.43 | 0.43 | 88 | 1014.4 |
| 20260904172323 | 26 | 280 | 3.2 | 8.0 | 0.00 | 0.43 | 0.43 | 87 | 1017.4 |
| 20260904172033 | 25 | 359 | 3.2 | 8.0 | 0.00 | 0.43 | 0.43 | 88 | 1014.5 |
| 20260904171821 | 26 | 270 | 4.8 | 11.3 | 0.00 | 0.43 | 0.43 | 87 | 1017.5 |
| 20260904171526 | 25 | 268 | 6.4 | 11.3 | 0.00 | 0.43 | 0.43 | 87 | 1014.5 |
| 20260904171321 | 26 | 268 | 3.2 | 11.3 | 0.00 | 0.43 | 0.43 | 88 | 1017.6 |
| 20260904171021 | 25 | 273 | 6.4 | 11.3 | 0.00 | 0.43 | 0.43 | 88 | 1014.6 |
| 20260904170819 | 26 | 278 | 8.0 | 11.3 | 0.00 | 0.43 | 0.43 | 88 | 1017.6 |
| 20260904170505 | 26 | 274 | 4.8 | 11.3 | 0.00 | 0.43 | 0.43 | 89 | 1014.7 |
| 20260904170317 | 26 | 245 | 6.4 | 11.3 | 0.00 | 0.43 | 0.43 | 89 | 1017.7 |
| 20260904170057 | 25 | 263 | 3.2 | 8.0 | 0.00 | 0.43 | 0.43 | 89 | 1014.6 |
| 20260904165814 | 26 | 245 | 3.2 | 8.0 | 0.00 | 0.43 | 0.43 | 89 | 1017.6 |
| 20260904165551 | 25 | 237 | 3.2 | 8.0 | 0.03 | 0.43 | 0.43 | 89 | 1014.7 |
| 20260904165314 | 25 | 242 | 4.8 | 8.0 | 0.03 | 0.43 | 0.43 | 89 | 1017.6 |
| 20260904165041 | 25 | 242 | 4.8 | 8.0 | 0.03 | 0.43 | 0.43 | 89 | 1014.7 |
| 20260904164832 | 25 | 229 | 1.6 | 6.4 | 0.08 | 0.43 | 0.43 | 89 | 1017.6 |
| 20260904164534 | 25 | 229 | 3.2 | 6.4 | 0.15 | 0.43 | 0.43 | 89 | 1014.7 |
| 20260904164350 | 25 | 178 | 3.2 | 4.8 | 0.20 | 0.43 | 0.43 | 89 | 1017.6 |
| 20260904164102 | 25 | 178 | 1.6 | 8.0 | 0.23 | 0.43 | 0.43 | 89 | 1014.7 |
| 20260904163829 | 25 | 178 | 1.6 | 9.7 | 0.23 | 0.43 | 0.43 | 89 | 1017.6 |
| 20260904163551 | 25 | 178 | 1.6 | 9.7 | 0.23 | 0.43 | 0.43 | 89 | 1014.6 |
| 20260904163326 | 25 | 178 | 4.8 | 9.7 | 0.23 | 0.43 | 0.43 | 89 | 1017.6 |
| 20260904163045 | 25 | 163 | 4.8 | 14.5 | 0.25 | 0.43 | 0.43 | 89 | 1014.5 |
| 20260904162825 | 25 | 215 | 4.8 | 14.5 | 0.25 | 0.43 | 0.43 | 89 | 1017.6 |
| 20260904162540 | 25 | 215 | 4.8 | 14.5 | 0.28 | 0.43 | 0.43 | 89 | 1014.6 |
| 20260904162325 | 25 | 224 | 3.2 | 14.5 | 0.28 | 0.43 | 0.43 | 90 | 1017.6 |
| 20260904162033 | 24 | 180 | 4.8 | 16.1 | 0.28 | 0.43 | 0.43 | 90 | 1014.6 |
| 20260904161822 | 25 | 231 | 8.0 | 16.1 | 0.28 | 0.43 | 0.43 | 89 | 1017.6 |
| 20260904161527 | 24 | 243 | 9.7 | 16.1 | 0.28 | 0.43 | 0.43 | 90 | 1014.6 |
| 20260904161321 | 25 | 192 | 8.0 | 16.1 | 0.28 | 0.43 | 0.43 | 90 | 1017.7 |
| 20260904161025 | 24 | 210 | 9.7 | 16.1 | 0.28 | 0.43 | 0.43 | 90 | 1014.6 |
| 20260904160820 | 25 | 186 | 8.0 | 22.5 | 0.28 | 0.43 | 0.43 | 90 | 1017.6 |
| 20260904160505 | 24 | 207 | 9.7 | 22.5 | 0.28 | 0.43 | 0.43 | 90 | 1014.4 |
| 20260904160339 | 25 | 201 | 11.3 | 22.5 | 0.28 | 0.43 | 0.43 | 90 | 1017.5 |
| 20260904160054 | 24 | 170 | 14.5 | 19.3 | 0.28 | 0.43 | 0.43 | 90 | 1014.5 |
| 20260904155831 | 25 | 216 | 12.9 | 20.9 | 0.28 | 0.43 | 0.43 | 90 | 1017.4 |
| 20260904155544 | 24 | 220 | 14.5 | 20.9 | 0.25 | 0.41 | 0.41 | 90 | 1014.5 |
| 20260904155330 | 25 | 210 | 11.3 | 24.1 | 0.25 | 0.41 | 0.41 | 90 | 1017.4 |
| 20260904155037 | 24 | 227 | 11.3 | 24.1 | 0.25 | 0.41 | 0.41 | 90 | 1014.3 |
| 20260904154829 | 25 | 227 | 11.3 | 24.1 | 0.18 | 0.33 | 0.33 | 90 | 1017.4 |
| 20260904154529 | 24 | 212 | 8.0 | 16.1 | 0.10 | 0.25 | 0.25 | 90 | 1014.5 |
| 20260904154326 | 25 | 191 | 9.7 | 16.1 | 0.08 | 0.23 | 0.23 | 90 | 1017.5 |
| 20260904154015 | 24 | 226 | 8.0 | 16.1 | 0.05 | 0.20 | 0.20 | 90 | 1014.5 |
| 20260904153825 | 25 | 205 | 9.7 | 16.1 | 0.05 | 0.20 | 0.20 | 90 | 1017.5 |
| 20260904153508 | 24 | 216 | 9.7 | 16.1 | 0.05 | 0.20 | 0.20 | 90 | 1014.4 |
| 20260904153344 | 25 | 222 | 11.3 | 16.1 | 0.05 | 0.20 | 0.20 | 90 | 1017.4 |
| 20260904153039 | 24 | 220 | 9.7 | 12.9 | 0.03 | 0.18 | 0.18 | 90 | 1014.4 |
| 20260904152821 | 25 | 187 | 9.7 | 12.9 | 0.00 | 0.15 | 0.15 | 90 | 1017.6 |
| 20260904152534 | 24 | 189 | 3.2 | 11.3 | 0.00 | 0.15 | 0.15 | 90 | 1014.6 |
| 20260904152320 | 25 | 189 | 8.0 | 12.9 | 0.00 | 0.15 | 0.15 | 90 | 1017.5 |
| 20260904152025 | 24 | 177 | 4.8 | 12.9 | 0.00 | 0.15 | 0.15 | 90 | 1014.5 |
| 20260904151818 | 25 | 149 | 8.0 | 12.9 | 0.00 | 0.15 | 0.15 | 90 | 1017.4 |
| 20260904151517 | 24 | 145 | 8.0 | 12.9 | 0.00 | 0.15 | 0.15 | 90 | 1014.4 |
| 20260904151339 | 25 | 172 | 6.4 | 16.1 | 0.00 | 0.15 | 0.15 | 90 | 1017.2 |
| 20260904151039 | 24 | 202 | 6.4 | 16.1 | 0.00 | 0.15 | 0.15 | 90 | 1014.2 |
| 20260904150853 | 25 | 171 | 8.0 | 16.1 | 0.00 | 0.15 | 0.15 | 90 | 1017.3 |
| 20260904150503 | 24 | 206 | 8.0 | 16.1 | 0.00 | 0.15 | 0.15 | 90 | 1014.2 |
| 20260904150331 | 25 | 213 | 8.0 | 12.9 | 0.00 | 0.15 | 0.15 | 90 | 1017.4 |
| 20260904150055 | 24 | 207 | 4.8 | 14.5 | 0.00 | 0.15 | 0.15 | 90 | 1014.3 |
| 20260904145850 | 25 | 211 | 6.4 | 14.5 | 0.00 | 0.15 | 0.15 | 90 | 1017.4 |
| 20260904145529 | 24 | 193 | 8.0 | 14.5 | 0.00 | 0.15 | 0.15 | 90 | 1014.4 |
| 20260904145343 | 25 | 203 | 8.0 | 19.3 | 0.00 | 0.15 | 0.15 | 90 | 1017.5 |
| 20260904145055 | 24 | 199 | 8.0 | 19.3 | 0.00 | 0.15 | 0.15 | 90 | 1014.3 |
| 20260904144821 | 25 | 187 | 8.0 | 19.3 | 0.00 | 0.15 | 0.15 | 90 | 1017.3 |
| 20260904144551 | 24 | 200 | 11.3 | 19.3 | 0.03 | 0.15 | 0.15 | 90 | 1014.2 |
| 20260904144339 | 25 | 179 | 8.0 | 19.3 | 0.03 | 0.15 | 0.15 | 90 | 1017.2 |
| 20260904144024 | 24 | 172 | 11.3 | 19.3 | 0.03 | 0.15 | 0.15 | 91 | 1014.0 |
| 20260904143816 | 25 | 184 | 11.3 | 19.3 | 0.03 | 0.15 | 0.15 | 90 | 1017.1 |
| 20260904143517 | 24 | 195 | 8.0 | 16.1 | 0.03 | 0.15 | 0.15 | 91 | 1014.1 |
| 20260904143335 | 25 | 194 | 9.7 | 17.7 | 0.05 | 0.15 | 0.15 | 91 | 1017.0 |
| 20260904143041 | 24 | 187 | 8.0 | 17.7 | 0.08 | 0.15 | 0.15 | 91 | 1013.9 |
| 20260904142848 | 25 | 222 | 9.7 | 17.7 | 0.08 | 0.15 | 0.15 | 91 | 1017.0 |
| 20260904142517 | 24 | 195 | 9.7 | 16.1 | 0.08 | 0.15 | 0.15 | 91 | 1014.1 |
| 20260904142356 | 25 | 195 | 11.3 | 16.1 | 0.08 | 0.15 | 0.15 | 91 | 1017.1 |
| 20260904142032 | 24 | 195 | 11.3 | 17.7 | 0.08 | 0.15 | 0.15 | 91 | 1014.1 |
| 20260904141844 | 25 | 202 | 11.3 | 17.7 | 0.08 | 0.15 | 0.15 | 91 | 1017.0 |
| 20260904141601 | 24 | 158 | 9.7 | 17.7 | 0.08 | 0.15 | 0.15 | 91 | 1014.0 |
| 20260904141321 | 25 | 170 | 9.7 | 16.1 | 0.08 | 0.15 | 0.15 | 91 | 1016.9 |
| 20260904141046 | 24 | 206 | 9.7 | 16.1 | 0.08 | 0.15 | 0.15 | 91 | 1013.9 |
| 20260904140840 | 24 | 137 | 11.3 | 16.1 | 0.08 | 0.15 | 0.15 | 91 | 1016.9 |
| 20260904140536 | 24 | 190 | 11.3 | 17.7 | 0.08 | 0.15 | 0.15 | 91 | 1014.0 |
| 20260904140331 | 24 | 160 | 11.3 | 17.7 | 0.08 | 0.15 | 0.15 | 91 | 1017.0 |
| 20260904140016 | 24 | 171 | 11.3 | 17.7 | 0.08 | 0.15 | 0.15 | 91 | 1014.2 |
| 20260904135829 | 24 | 164 | 9.7 | 14.5 | 0.08 | 0.15 | 0.15 | 91 | 1017.4 |
| 20260904135507 | 24 | 176 | 6.4 | 11.3 | 0.08 | 0.15 | 0.15 | 90 | 1014.3 |
| 20260904135347 | 24 | 182 | 6.4 | 11.3 | 0.08 | 0.15 | 0.15 | 90 | 1017.3 |
| 20260904135039 | 24 | 176 | 6.4 | 11.3 | 0.08 | 0.15 | 0.15 | 90 | 1014.3 |
| 20260904134823 | 24 | 157 | 4.8 | 9.7 | 0.08 | 0.15 | 0.15 | 90 | 1017.4 |
| 20260904134500 | 24 | 189 | 3.2 | 6.4 | 0.05 | 0.13 | 0.13 | 90 | 1014.4 |
| 20260904134321 | 24 | 142 | 3.2 | 4.8 | 0.05 | 0.13 | 0.13 | 90 | 1017.5 |
| 20260904134052 | 24 | 141 | 1.6 | 3.2 | 0.05 | 0.13 | 0.13 | 90 | 1014.4 |
| 20260904133819 | 24 | 141 | 0.0 | 3.2 | 0.05 | 0.13 | 0.13 | 90 | 1017.4 |
| 20260904133542 | 24 | 141 | 0.0 | 3.2 | 0.05 | 0.13 | 0.13 | 90 | 1014.6 |
| 20260904133423 | 24 | 141 | 0.0 | 4.8 | 0.03 | 0.10 | 0.10 | 90 | 1017.6 |
| 20260904133044 | 24 | 141 | 0.0 | 8.0 | 0.00 | 0.08 | 0.08 | 90 | 1014.7 |
| 20260904132847 | 24 | 141 | 0.0 | 8.0 | 0.00 | 0.08 | 0.08 | 90 | 1017.6 |
| 20260904132503 | 24 | 142 | 4.8 | 8.0 | 0.03 | 0.08 | 0.08 | 90 | 1014.4 |
| 20260904132324 | 24 | 141 | 4.8 | 8.0 | 0.03 | 0.08 | 0.08 | 90 | 1017.5 |
| 20260904132057 | 24 | 131 | 4.8 | 8.0 | 0.03 | 0.08 | 0.08 | 90 | 1014.4 |
| 20260904131822 | 24 | 143 | 3.2 | 6.4 | 0.03 | 0.08 | 0.08 | 89 | 1017.4 |
| 20260904131549 | 24 | 82 | 1.6 | 9.7 | 0.03 | 0.08 | 0.08 | 89 | 1014.5 |
| 20260904131340 | 24 | 82 | 3.2 | 9.7 | 0.03 | 0.08 | 0.08 | 89 | 1017.6 |
| 20260904131038 | 24 | 44 | 1.6 | 9.7 | 0.03 | 0.08 | 0.08 | 90 | 1014.7 |
| 20260904130830 | 24 | 39 | 4.8 | 9.7 | 0.03 | 0.08 | 0.08 | 89 | 1017.6 |
| 20260904130531 | 24 | 29 | 4.8 | 8.0 | 0.05 | 0.08 | 0.08 | 89 | 1014.5 |
| 20260904130328 | 24 | 31 | 4.8 | 8.0 | 0.05 | 0.08 | 0.08 | 89 | 1017.4 |
| 20260904130013 | 24 | 91 | 3.2 | 12.9 | 0.05 | 0.08 | 0.08 | 89 | 1014.0 |
| 20260904125846 | 24 | 143 | 3.2 | 12.9 | 0.05 | 0.08 | 0.08 | 89 | 1016.9 |
| 20260904125550 | 24 | 143 | 3.2 | 12.9 | 0.08 | 0.08 | 0.08 | 89 | 1013.6 |
| 20260904125342 | 24 | 164 | 8.0 | 12.9 | 0.08 | 0.08 | 0.08 | 89 | 1016.6 |
| 20260904125007 | 24 | 193 | 4.8 | 12.9 | 0.08 | 0.08 | 0.08 | 89 | 1013.3 |
| 20260904124818 | 24 | 181 | 4.8 | 14.5 | 0.08 | 0.08 | 0.08 | 89 | 1016.3 |
| 20260904124613 | 24 | 187 | 6.4 | 14.5 | 0.08 | 0.08 | 0.08 | 89 | 1013.2 |
| 20260904124315 | 24 | 167 | 8.0 | 14.5 | 0.08 | 0.08 | 0.08 | 89 | 1016.1 |
| 20260904124040 | 24 | 207 | 8.0 | 14.5 | 0.08 | 0.08 | 0.08 | 89 | 1012.9 |
| 20260904123822 | 24 | 175 | 9.7 | 16.1 | 0.08 | 0.08 | 0.08 | 89 | 1016.0 |
| 20260904123502 | 24 | 177 | 6.4 | 16.1 | 0.08 | 0.08 | 0.08 | 88 | 1012.9 |
| 20260904123320 | 24 | 193 | 9.7 | 16.1 | 0.08 | 0.08 | 0.08 | 88 | 1015.9 |
| 20260904123103 | 24 | 179 | 8.0 | 12.9 | 0.08 | 0.08 | 0.08 | 88 | 1012.9 |
| 20260904122818 | 24 | 169 | 8.0 | 12.9 | 0.08 | 0.08 | 0.08 | 89 | 1015.9 |
| 20260904122549 | 24 | 162 | 8.0 | 16.1 | 0.05 | 0.05 | 0.08 | 89 | 1012.9 |
| 20260904122316 | 24 | 146 | 9.7 | 16.1 | 0.05 | 0.05 | 0.05 | 88 | 1015.9 |
| 20260904122045 | 24 | 147 | 9.7 | 16.1 | 0.05 | 0.05 | 0.05 | 88 | 1012.9 |
| 20260904121814 | 24 | 162 | 11.3 | 16.1 | 0.05 | 0.05 | 0.05 | 88 | 1015.8 |
| 20260904121536 | 24 | 164 | 9.7 | 16.1 | 0.05 | 0.05 | 0.05 | 88 | 1012.8 |
| 20260904121332 | 25 | 167 | 9.7 | 14.5 | 0.05 | 0.05 | 0.05 | 88 | 1015.8 |
| 20260904121017 | 24 | 190 | 8.0 | 12.9 | 0.05 | 0.05 | 0.05 | 87 | 1012.8 |
| 20260904120850 | 25 | 143 | 8.0 | 14.5 | 0.05 | 0.05 | 0.05 | 87 | 1015.8 |